• Join FlightAware (Why Join?)
  • Login
  • US Flag GB Flag 
15:16 EDT


 

Airport Tracker/Info


-or-


 

Live Flight TrackerFlight Track Log ✈ UAL4457 ✈ 24-Apr-2013 ✈ KIAH - KLEX

Flight Track Log - Related Links

Times and Time Zones

All times are in EDT time to prevent confusion due to time zone crossing. See the UAL4457 flight status page for this flight to view local times or setup timezone preferences in your user account.

Time Position Orientation Groundspeed Altitude Reporting Facility
EDT Latitude Longitude Course Direction KTS MPH feet Rate Location/Type
15:12 29.9839 -95.3578 352° North 174 200 600  Level Houston Center
15:13 30.0267 -95.3647 352° North 204 235 2,300 1,980 Climbing Houston Center
15:14 30.0778 -95.3394 23° Northeast 224 258 4,300 2,280 Climbing Houston Center
15:15 30.1458 -95.3069 22° Northeast 264 304 6,900 2,340 Climbing Houston Center
15:16 30.2183 -95.2733 22° Northeast 280 322 9,200 1,740 Climbing Houston Center
15:17 30.2981 -95.2353 22° Northeast 306 352 10,600 1,320 Climbing Houston Center
15:18 30.3931 -95.1886 23° Northeast 365 420 12,000 1,740 Climbing Houston Center
15:19 30.5006 -95.1306 25° Northeast 370 426 14,300 1,860 Climbing Houston Center
15:20 30.5931 -95.0722 28° Northeast 376 433 15,900 1,380 Climbing Houston Center
15:21 30.6889 -95.0128 28° Northeast 387 445 17,200 1,200 Climbing Houston Center
15:22 30.8078 -94.9394 28° Northeast 402 463 18,500 1,200 Climbing Houston Center
15:23 30.9089 -94.8758 28° Northeast 412 474 19,800 1,260 Climbing Houston Center
15:23 30.9453 -94.8533 28° Northeast 411 473 20,400 1,260 Climbing Fort Worth Center
15:24 31.0483 -94.7900 28° Northeast 395 455 21,700 1,620 Climbing Fort Worth Center
15:25 31.1492 -94.7239 29° Northeast 400 460 23,700 1,800 Climbing Fort Worth Center
15:26 31.2542 -94.6553 29° Northeast 405 466 25,300 1,560 Climbing Fort Worth Center
15:27 31.3489 -94.5892 31° Northeast 405 466 26,900 1,680 Climbing Fort Worth Center
15:28 31.4453 -94.5231 30° Northeast 405 466 28,700 1,200 Climbing Fort Worth Center
15:29 31.5419 -94.4542 31° Northeast 405 466 29,300 1,080 Climbing Fort Worth Center
15:30 31.6364 -94.3878 31° Northeast 398 458 30,900 840 Climbing Fort Worth Center
15:31 31.7369 -94.3211 29° Northeast 398 458 31,000  Climbing Fort Worth Center
15:32 31.8458 -94.2439 31° Northeast 418 481 31,000  Level Fort Worth Center
15:33 31.9606 -94.1642 31° Northeast 449 517 31,000 540 Level Fort Worth Center
15:34 32.0733 -94.0842 31° Northeast 463 533 32,100 1,320 Climbing Fort Worth Center
15:35 32.1819 -94.0064 31° Northeast 463 533 33,700 1,440 Climbing Fort Worth Center
15:36 32.2842 -93.9264 33° Northeast 451 519 35,000 600 Climbing Fort Worth Center
15:37 32.3928 -93.8533 30° Northeast 445 512 35,000  Level Fort Worth Center
15:38 32.5011 -93.7728 32° Northeast 445 512 35,000  Level Fort Worth Center
15:39 32.6136 -93.6942 30° Northeast 445 512 35,000  Level Fort Worth Center
15:40 32.7281 -93.6156 30° Northeast 458 527 35,000  Level Fort Worth Center
15:41 32.8403 -93.5317 32° Northeast 463 533 35,000  Level Fort Worth Center
15:42 32.9547 -93.4525 30° Northeast 463 533 35,000  Level Fort Worth Center
15:43 33.0669 -93.3706 31° Northeast 463 533 35,000  Level Fort Worth Center
15:44 33.1811 -93.2883 31° Northeast 469 540 35,000  Level Fort Worth Center
15:46 33.4222 -93.1150 31° Northeast 465 535 35,000  Level Memphis Center
15:47 33.5369 -93.0314 31° Northeast 465 535 35,000  Level Memphis Center
15:48 33.6514 -92.9500 31° Northeast 465 535 35,000  Level Memphis Center
15:49 33.7614 -92.8658 32° Northeast 470 541 35,000  Level Memphis Center
15:50 33.8781 -92.7817 31° Northeast 470 541 35,000  Level Memphis Center
15:51 33.9922 -92.6997 31° Northeast 475 547 35,000  Level Memphis Center
15:52 34.1022 -92.6122 33° Northeast 475 547 35,000  Level Memphis Center
15:53 34.2167 -92.5275 31° Northeast 475 547 35,000  Level Memphis Center
15:54 34.3306 -92.4422 32° Northeast 475 547 35,000  Level Memphis Center
15:55 34.4469 -92.3519 33° Northeast 481 554 35,000  Level Memphis Center
15:56 34.5631 -92.2664 31° Northeast 481 554 35,000  Level Memphis Center
15:57 34.6750 -92.1803 32° Northeast 481 554 35,000  Level Memphis Center
15:58 34.7725 -92.0586 46° Northeast 481 554 35,000  Level Memphis Center
15:59 34.8703 -91.9339 46° Northeast 490 564 35,000  Level Memphis Center
16:00 34.9678 -91.8117 46° Northeast 495 570 35,000  Level Memphis Center
16:01 35.0628 -91.6864 47° Northeast 500 575 35,000  Level Memphis Center
16:02 35.1581 -91.5636 46° Northeast 500 575 35,000  Level Memphis Center
16:03 35.2572 -91.4353 47° Northeast 500 575 35,000  Level Memphis Center
16:04 35.3564 -91.3092 46° Northeast 500 575 35,000  Level Memphis Center
16:05 35.4447 -91.1956 46° Northeast 500 575 35,000  Level Memphis Center
16:06 35.5394 -91.0714 47° Northeast 500 575 35,000  Level Memphis Center
16:07 35.6464 -90.9292 47° Northeast 500 575 35,000  Level Memphis Center
16:08 35.7344 -90.8019 50° Northeast 498 573 35,000  Level Memphis Center
16:09 35.8350 -90.6744 46° Northeast 498 573 35,000  Level Memphis Center
16:10 35.9311 -90.5417 48° Northeast 498 573 35,000  Level Memphis Center
16:11 36.0294 -90.4133 47° Northeast 504 580 35,000  Level Memphis Center
16:12 36.1272 -90.2850 47° Northeast 509 586 35,000  Level Memphis Center
16:13 36.2231 -90.1536 48° Northeast 509 586 35,000  Level Memphis Center
16:14 36.3208 -90.0247 47° Northeast 509 586 35,000  Level Memphis Center
16:15 36.4161 -89.8953 48° Northeast 509 586 35,000  Level Memphis Center
16:16 36.5158 -89.7631 47° Northeast 509 586 35,000  Level Memphis Center
16:17 36.6131 -89.6281 48° Northeast 514 592 35,000  Level Memphis Center
16:18 36.7122 -89.4925 48° Northeast 519 597 35,000  Level Memphis Center
16:19 36.8092 -89.3592 48° Northeast 519 597 35,000  Level Memphis Center
16:20 36.9078 -89.2206 48° Northeast 519 597 35,000  Level Memphis Center
16:21 36.9942 -89.0997 48° Northeast 514 592 35,000  Level Memphis Center
16:22 37.0928 -88.9656 47° Northeast 514 592 35,000  Level Memphis Center
16:23 37.1892 -88.8258 49° Northeast 514 592 35,000  Level Memphis Center
16:24 37.2894 -88.6883 47° Northeast 514 592 35,000  Level Memphis Center
16:25 37.3853 -88.5533 48° Northeast 514 592 35,000  Level Memphis Center
16:28 37.5828 -88.2611 49° Northeast 537 618 35,000  Level Indianapolis Center
16:29 37.6942 -88.0942 50° Northeast 541 623 35,000 -180 Level Indianapolis Center
16:30 37.7453 -87.9053 71° East 567 652 34,700 -540 Descending Indianapolis Center
16:31 37.7772 -87.7047 79° East 560 644 34,000 -1,020 Descending Indianapolis Center
16:32 37.8081 -87.5131 78° East 557 641 32,600 -1,440 Descending Indianapolis Center
16:33 37.8408 -87.3167 78° East 570 656 31,100 -1,440 Descending Indianapolis Center
16:34 37.8719 -87.1189 79° East 576 663 29,700 -1,560 Descending Indianapolis Center
16:35 37.9081 -86.8856 79° East 571 657 27,900 -1,620 Descending Indianapolis Center
16:36 37.9383 -86.6919 79° East 565 650 26,400 -1,500 Descending Indianapolis Center
16:37 37.9678 -86.4972 79° East 566 651 24,900 -1,740 Descending Indianapolis Center
16:38 37.9964 -86.3047 79° East 559 643 22,900 -2,100 Descending Indianapolis Center
16:39 38.0247 -86.1211 79° East 537 618 20,600 -2,280 Descending Indianapolis Center
16:40 38.0539 -85.9139 80° East 500 575 18,200 -2,100 Descending Indianapolis Center
16:41 38.0803 -85.7453 79° East 488 562 16,300 -1,560 Descending Indianapolis Center
16:42 38.1022 -85.5853 80° East 462 532 15,000 -1,080 Descending Indianapolis Center
16:43 38.0942 -85.4253 94° East 458 527 14,100 -1,320 Descending Indianapolis Center
16:44 38.0833 -85.2672 95° East 450 518 12,300 -1,500 Descending Indianapolis Center
16:45 38.0753 -85.1067 94° East 414 476 11,100 -900 Descending Indianapolis Center
16:46 38.0783 -84.9811 88° East 362 417 10,500 -780 Descending Indianapolis Center
16:47 38.1058 -84.8697 73° East 334 384 9,500 -1,080 Descending Indianapolis Center
16:48 38.1328 -84.7625 72° East 322 371 8,300 -1,260 Descending Indianapolis Center
16:49 38.1731 -84.6481 66° East 321 369 7,000 -1,440 Descending Indianapolis Center
16:50 38.2331 -84.5822 41° Northeast 297 342 5,400 -1,560 Descending Indianapolis Center
16:51 38.2258 -84.4978 96° East 274 315 3,900 -1,080 Descending Indianapolis Center
16:52 38.1853 -84.4400 132° Southeast 241 277 3,200 -360 Descending Indianapolis Center
16:53 38.1408 -84.4875 220° Southwest 218 251 3,200 -240 Level Indianapolis Center
16:54 38.1039 -84.5289 221° Southwest 197 227 2,800 -540 Descending Indianapolis Center
16:55 38.0708 -84.5647 220° Southwest 174 200 2,200 -600 Descending Indianapolis Center